Tracking 35051 objects as of 17-Aug-2026
HD Live streaming from Space Station
objects crossing your sky now

STARLINK-38137


10-day predictions
STARLINK-38137 is classified as:


NORAD ID: 100198
Int'l Code: 2026-175V
Launch date: August 1, 2026
Source: United States (US)
Launch site: AIR FORCE WESTERN TEST RANGE (AFWTR)
Your satellite tracking list
Your tracking list is empty




NASA's NSSDC Master Catalog

Two Line Element Set (TLE):
1 A0198U 26175V   26229.61335065  .00267628  00000-0  13504-2 0  9995
2 A0198  97.2843  70.4080 0001405  53.1654 306.9743 15.80899310  3847
Source of the keplerian elements: AFSPC